Maple Lake, MN

4:35 PM CST on January 22, 2017 (GMT -0600)
Maple Lake Municipal

Weather History for KMGG - April, 2014

Change the Weather History Date:

Thursday, April 3, 2014

  Actual Average (KSTC) Record (KSTC)
Temperature  
Mean Temperature 32 °F -  
Max Temperature 37 °F 45 °F 72 °F (1929)
Min Temperature 28 °F 25 °F 2 °F (1975)
Degree Days  
Heating Degree Days 32    
Moisture  
Dew Point 29 °F    
Average Humidity 83    
Maximum Humidity 99    
Minimum Humidity 59    
Precipitation  
Precipitation 0.12 in - - ()
Sea Level Pressure  
Sea Level Pressure 29.94 in    
Wind  
Wind Speed 10 mph (ENE)    
Max Wind Speed 18 mph    
Max Gust Speed 24 mph    
Visibility 7 miles    
Events Snow    
Averages and records for this station are not official NWS values.
T = Trace of Precipitation, MM = Missing Value Source: NWS Daily Summary

Daily Weather History Graph

Daily Weather History Graph

Search for Another Location

Airport or City:

Trip Planner

Search our weather history database for the weather conditions in past years. The results will help you decide how hot, cold, wet, or windy it might be!

Date:

Astronomy

Apr. 03, 2014 Rise Set
Actual Time 6:52 AM CDT 7:46 PM CDT
Civil Twilight 6:22 AM CDT 8:16 PM CDT
Nautical Twilight 5:47 AM CDT 8:52 PM CDT
Astronomical Twilight 5:09 AM CDT 9:29 PM CDT
Moon 9:13 AM CDT (4/3) No Moon Set
Length of Visible Light 13h 53m
Length of Day
12h 53m
Waxing Crescent, 17% of the Moon is Illuminated
Apr 3
Waxing Crescent
Apr 7
First Quarter
Apr 15
Full
Apr 22
Last Quarter
Apr 29
New

Hourly Weather History & Observations

Time (CDT) Temp. Windchill Dew Point Humidity Pressure Visibility Wind Dir Wind Speed Gust Speed Precip Events Conditions
12:17 AM 36.7 °F 31.2 °F 24.4 °F 61% 30.06 in 10.0 mi NE 6.9 mph - N/A   Overcast
12:18 AM 36.7 °F 31.2 °F 24.4 °F 61% 30.06 in 10.0 mi NE 6.9 mph - N/A   Overcast
12:45 AM 35.6 °F 30.7 °F 24.8 °F 65% 30.07 in 10.0 mi ENE 5.8 mph - N/A   Overcast
1:07 AM 37.0 °F 33.3 °F 24.1 °F 59% 30.07 in 10.0 mi ENE 4.6 mph - N/A   Overcast
1:17 AM 36.9 °F 31.4 °F 24.3 °F 60% 30.07 in 10.0 mi NE 6.9 mph - N/A   Overcast
1:21 AM 36.9 °F 31.4 °F 24.1 °F 60% 30.07 in 10.0 mi NE 6.9 mph - N/A   Overcast
1:45 AM 35.6 °F 29.9 °F 24.8 °F 65% 30.06 in 10.0 mi ENE 6.9 mph - N/A   Overcast
2:05 AM 37.4 °F 31.4 °F 24.8 °F 60% 30.05 in 10.0 mi ENE 8.1 mph - N/A   Overcast
2:25 AM 37.4 °F 32.1 °F 24.8 °F 60% 30.02 in 10.0 mi ENE 6.9 mph - N/A   Overcast
2:45 AM 37.4 °F 31.4 °F 24.8 °F 60% 30.00 in 10.0 mi ENE 8.1 mph - N/A   Overcast
3:05 AM 35.6 °F 27.5 °F 24.8 °F 65% 30.00 in 10.0 mi East 11.5 mph - N/A   Overcast
3:30 AM 36.5 °F 29.2 °F 25.5 °F 64% 30.00 in 10.0 mi East 10.4 mph - N/A   Overcast
3:37 AM 36.5 °F 28.7 °F 25.7 °F 65% 30.00 in 10.0 mi ENE 11.5 mph - N/A   Overcast
3:57 AM 36.5 °F 28.7 °F 26.6 °F 67% 30.00 in 10.0 mi ENE 11.5 mph - N/A   Overcast
4:17 AM 36.1 °F 28.7 °F 27.5 °F 71% 30.00 in 10.0 mi ENE 10.4 mph - N/A   Overcast
4:37 AM 36.5 °F 29.2 °F 27.9 °F 71% 30.00 in 10.0 mi ENE 10.4 mph - N/A   Overcast
4:57 AM 36.0 °F 28.5 °F 28.0 °F 73% 30.01 in 10.0 mi ENE 10.4 mph - N/A   Overcast
5:17 AM 35.8 °F 28.3 °F 28.2 °F 74% 30.00 in 10.0 mi ENE 10.4 mph - N/A   Overcast
5:37 AM 35.8 °F 28.8 °F 28.2 °F 74% 30.00 in 10.0 mi ENE 9.2 mph - N/A   Overcast
5:57 AM 35.8 °F 28.3 °F 28.0 °F 73% 29.99 in 10.0 mi ENE 10.4 mph - N/A   Overcast
6:17 AM 35.6 °F 28.0 °F 28.0 °F 74% 29.98 in 10.0 mi ENE 10.4 mph - N/A   Overcast
6:37 AM 35.6 °F 28.0 °F 27.9 °F 73% 29.98 in 10.0 mi ENE 10.4 mph - N/A   Overcast
6:57 AM 35.8 °F 28.3 °F 27.5 °F 72% 29.98 in 10.0 mi ENE 10.4 mph - N/A   Overcast
7:17 AM 35.6 °F 28.6 °F 27.9 °F 73% 29.99 in 10.0 mi ENE 9.2 mph - N/A   Overcast
7:37 AM 35.6 °F 29.2 °F 28.2 °F 75% 29.99 in 10.0 mi East 8.1 mph - N/A   Overcast
7:57 AM 35.6 °F 29.2 °F 28.2 °F 75% 30.00 in 10.0 mi East 8.1 mph - N/A   Overcast
8:17 AM 35.8 °F 26.9 °F 28.9 °F 76% 29.99 in 10.0 mi East 13.8 mph - N/A   Overcast
8:37 AM 35.2 °F 26.6 °F 29.8 °F 81% 29.98 in 10.0 mi ENE 12.7 mph - N/A   Overcast
8:57 AM 34.9 °F 26.2 °F 30.0 °F 82% 29.97 in 10.0 mi East 12.7 mph - N/A   Overcast
9:17 AM 34.5 °F 25.3 °F 30.7 °F 86% 29.96 in 10.0 mi East 13.8 mph 19.6 mph N/A   Overcast
9:37 AM 33.8 °F 24.3 °F 31.1 °F 90% 29.95 in 10.0 mi ENE 13.8 mph 21.9 mph N/A   Overcast
9:57 AM 33.8 °F 24.3 °F 31.5 °F 91% 29.95 in 10.0 mi ENE 13.8 mph - N/A   Overcast
10:17 AM 34.0 °F 23.0 °F 31.5 °F 90% 29.94 in 10.0 mi ENE 18.4 mph 24.2 mph N/A   Overcast
10:37 AM 33.8 °F 24.3 °F 31.5 °F 91% 29.94 in 10.0 mi ENE 13.8 mph - N/A   Overcast
10:57 AM 34.3 °F 25.0 °F 31.6 °F 90% 29.94 in 10.0 mi ENE 13.8 mph - N/A   Overcast
11:17 AM 34.3 °F 25.5 °F 31.6 °F 90% 29.93 in 10.0 mi ENE 12.7 mph 18.4 mph N/A   Overcast
11:37 AM 34.7 °F 26.9 °F 31.6 °F 89% 29.93 in 10.0 mi NE 10.4 mph 18.4 mph N/A   Overcast
11:57 AM 35.6 °F 27.1 °F 31.8 °F 86% 29.93 in 10.0 mi ENE 12.7 mph 19.6 mph N/A   Overcast
12:17 PM 35.6 °F 27.1 °F 31.6 °F 85% 29.92 in 10.0 mi NE 12.7 mph - N/A   Overcast
12:37 PM 35.4 °F 26.4 °F 31.3 °F 85% 29.92 in 10.0 mi ENE 13.8 mph 19.6 mph N/A   Overcast
12:57 PM 35.6 °F 27.5 °F 31.5 °F 85% 29.93 in 10.0 mi East 11.5 mph 17.3 mph N/A   Overcast
1:17 PM 35.2 °F 27.6 °F 32.0 °F 88% 29.92 in 4.0 mi ENE 10.4 mph - N/A   Overcast
1:37 PM 35.2 °F 27.6 °F 33.1 °F 92% 29.91 in 3.0 mi ENE 10.4 mph - N/A   Overcast
1:57 PM 34.7 °F 26.4 °F 32.5 °F 92% 29.91 in 5.0 mi East 11.5 mph 16.1 mph N/A   Overcast
2:17 PM 34.9 °F 26.2 °F 32.9 °F 92% 29.90 in 4.0 mi East 12.7 mph - N/A   Overcast
2:37 PM 34.5 °F 25.3 °F 32.5 °F 92% 29.89 in 7.0 mi ENE 13.8 mph - N/A   Overcast
2:57 PM 34.7 °F 25.1 °F 32.0 °F 90% 29.88 in 10.0 mi ENE 15.0 mph - N/A   Overcast
3:17 PM 35.6 °F 27.1 °F 31.8 °F 86% 29.87 in 10.0 mi East 12.7 mph - N/A   Overcast
3:37 PM 35.1 °F 25.5 °F 30.7 °F 84% 29.87 in 10.0 mi East 15.0 mph - N/A   Overcast
3:57 PM 34.7 °F 25.1 °F 30.7 °F 85% 29.87 in 10.0 mi East 15.0 mph - N/A   Overcast
4:17 PM 33.8 °F 24.8 °F 31.1 °F 90% 29.87 in 4.0 mi ENE 12.7 mph - N/A Snow Light Snow
4:37 PM 33.1 °F 24.4 °F 31.1 °F 92% 29.87 in 1.8 mi ENE 11.5 mph - N/A Snow Light Snow
4:57 PM 32.9 °F 27.5 °F 32.0 °F 96% 29.87 in 0.8 mi ENE 5.8 mph - N/A Snow Light Snow
5:17 PM 32.4 °F 24.6 °F 32.0 °F 99% 29.87 in 1.2 mi NE 9.2 mph - 0.01 in Snow Light Snow
5:37 PM 32.4 °F 25.3 °F 32.0 °F 99% 29.87 in 1.5 mi NE 8.1 mph - 0.02 in Snow Light Snow
5:57 PM 32.2 °F 23.8 °F 32.0 °F 99% 29.87 in 0.2 mi ENE 10.4 mph - 0.04 in Snow Snow
6:17 PM 32.2 °F 25.8 °F 32.0 °F 99% 29.88 in 0.8 mi NE 6.9 mph - 0.01 in Snow Light Snow
6:37 PM 32.2 °F 25.8 °F 32.0 °F 99% 29.89 in 0.8 mi NNE 6.9 mph - 0.01 in Snow Light Snow
6:57 PM 31.6 °F 25.1 °F 30.9 °F 97% 29.89 in 0.8 mi NNE 6.9 mph - 0.03 in Snow Light Snow
7:17 PM 31.3 °F 22.1 °F 30.7 °F 98% 29.88 in 0.5 mi NNE 11.5 mph 17.3 mph 0.01 in Snow Snow
7:37 PM 30.9 °F 22.8 °F 30.4 °F 98% 29.87 in 0.5 mi North 9.2 mph - 0.02 in Snow Snow
7:57 PM 30.2 °F 22.6 °F 29.8 °F 99% 29.87 in 1.0 mi North 8.1 mph - 0.02 in Snow Snow
8:17 PM 30.0 °F 20.0 °F 29.5 °F 98% 29.87 in 0.5 mi NNE 12.7 mph - 0.01 in Snow Snow
8:37 PM 29.5 °F 19.9 °F 28.9 °F 98% 29.86 in 0.5 mi NNE 11.5 mph - 0.01 in Snow Snow
8:57 PM 29.3 °F 19.1 °F 28.9 °F 99% 29.87 in 0.5 mi NNE 12.7 mph 16.1 mph 0.02 in Snow Heavy Snow
9:17 PM 29.3 °F 19.6 °F 28.6 °F 97% 29.87 in 0.8 mi NNE 11.5 mph - N/A Snow Snow
9:37 PM 29.1 °F 20.0 °F 28.4 °F 97% 29.86 in 1.0 mi NNE 10.4 mph 16.1 mph N/A Snow Light Snow
10:57 PM 28.4 °F 18.0 °F 27.7 °F 97% 29.84 in 1.0 mi NNE 12.7 mph - N/A Snow Light Snow
11:17 PM 28.8 °F 19.5 °F 27.9 °F 96% 29.84 in 1.2 mi North 10.4 mph - N/A Snow Light Snow
11:37 PM 28.8 °F 19.5 °F 27.9 °F 96% 29.83 in 1.2 mi NNE 10.4 mph - 0.01 in Snow Light Snow
11:57 PM 28.4 °F 19.7 °F 27.5 °F 96% 29.83 in 1.2 mi NNE 9.2 mph - 0.01 in Snow Light Snow